This is the latest recevied weather packets stored in our database for station/object KK7MLS-13. If no packets are shown the sender has not sent any weather packets the latest 10 day(s).
| Time | Temp. | Humidity | Pressure | Rain* | Wind** | Luminosity | Snow |
|---|---|---|---|---|---|---|---|
| 1777822401 | 20.56° C | 68% | 1012.4 hPa | 0 mm | - | 262 W/m² | - |
| 1777822098 | 20° C | 70% | 1012.4 hPa | 0 mm | - | 246 W/m² | - |
| 1777821796 | 18.89° C | 73% | 1012.5 hPa | 0 mm | - | 231 W/m² | - |
| 1777821493 | 18.33° C | 75% | 1012.4 hPa | 0 mm | - | 217 W/m² | - |
| 1777821191 | 17.78° C | 76% | 1012.5 hPa | 0 mm | - | 201 W/m² | - |
| 1777820887 | 16.67° C | 79% | 1012.6 hPa | 0 mm | - | 127 W/m² | - |
| 1777820583 | 15.56° C | 85% | 1012.5 hPa | 0 mm | - | 176 W/m² | - |
| 1777820280 | 14.44° C | 86% | 1012.6 hPa | 0 mm | - | 166 W/m² | - |
| 1777819978 | 13.89° C | 87% | 1012.6 hPa | 0 mm | - | 118 W/m² | - |
| 1777819674 | 13.33° C | 90% | 1012.5 hPa | 0 mm | - | 77 W/m² | - |
| 1777819373 | 12.78° C | 90% | 1012.4 hPa | 0 mm | - | 75 W/m² | - |
| 1777819070 | 12.78° C | 90% | 1012.4 hPa | 0 mm | - | 31 W/m² | - |
| 1777818766 | 12.78° C | 90% | 1012.5 hPa | 0 mm | - | 29 W/m² | - |
| 1777818463 | 12.78° C | 90% | 1012.5 hPa | 0 mm | - | 27 W/m² | - |
| 1777818160 | 12.78° C | 90% | 1012.4 hPa | 0 mm | - | 26 W/m² | - |
| 1777817856 | 12.22° C | 90% | 1012.4 hPa | 0 mm | - | 25 W/m² | - |
| 1777817554 | 12.22° C | 90% | 1012.3 hPa | 0 mm | - | 24 W/m² | - |
| 1777817250 | 12.22° C | 90% | 1012.6 hPa | 0 mm | - | 21 W/m² | - |
| 1777816948 | 12.22° C | 90% | 1012.3 hPa | 0 mm | - | 19 W/m² | - |
| 1777816644 | 12.22° C | 90% | 1012.3 hPa | 0 mm | - | 17 W/m² | - |
| 1777816341 | 12.22° C | 90% | 1012.4 hPa | 0 mm | - | 16 W/m² | - |
| 1777816038 | 12.22° C | 90% | 1012.3 hPa | 0 mm | - | 15 W/m² | - |
| 1777815736 | 12.22° C | 90% | 1012.2 hPa | 0 mm | - | 14 W/m² | - |
| 1777815434 | 12.22° C | 91% | 1012.2 hPa | 0 mm | - | 13 W/m² | - |
| 1777815130 | 12.22° C | 91% | 1012.3 hPa | 0 mm | - | 12 W/m² | - |
* Rain latest hour (hover to see other rain measurements)
** Current wind speed in m/s (hover to see current wind gust speed)